Tracking 17152 objects as of 28-April-2015
HD Live streaming from Space Station

MOLNIYA 3-51

Track MOLNIYA 3-51 now!
MOLNIYA 3-51 is classified as:


NORAD ID: 26867
Int'l Code: 2001-030A
Perigee: 263.9 km
Apogee: 32,635.2 km
Inclination: 62.5 °
Period: 571.8 minutes
Semi major axis: 22820 km
RCS: 12.5893 m2 (large)
Launch date: July 20, 2001
Source: Commonwealth of Independent States (former USSR) (CIS)

Can carry satellite broadcast television as well as military and manned voice communcations; highly elliptical orbit developed for northern latitudes beyond reach of geostationary satellites.
Your satellite tracking list
Your tracking list is empty




NASA's NSSDC Master Catalog

Two Line Element Set (TLE):
1 26867U 01030A   15118.10800718  .00003138  00000-0  82401-3 0  9997
2 26867 062.4868 232.2408 7092589 260.9212 034.1558 02.51833618102970

Source of the keplerian elements: AFSPC

N2YO: 439